{"data":{"norad_id":57341,"epoch":"2026-05-25T04:04:02.373888Z","epoch_age_seconds":67203,"freshness":"FRESH","line1":"1 57341U 23099P   26145.16947192  .00000449  00000+0  25842-4 0  9991","line2":"2 57341  43.0026 183.8437 0001904 282.7678  77.2961 15.27574455157735","mean_motion":15.27574455,"eccentricity":0.0001904,"inclination_deg":43.0026,"raan_deg":183.8437,"arg_perigee_deg":282.7678,"mean_anomaly_deg":77.2961,"bstar":2.5842e-5,"rev_number":15773,"period_min":94.26709089607,"perigee_km":481.75932682064,"apogee_km":484.37207280873,"semimajor_km":6861.2026998147,"source":"CELESTRAK","updated_at":"2026-05-25T13:38:18.288039Z"}}